Weather History for Moffett NAS, CA

Change the Weather History Date:

Saturday, December 4, 2010

  Actual Average Record
Temperature  
Mean Temperature 58 °F 52 °F  
Max Temperature 66 °F 60 °F 71 °F (2003)
Min Temperature 49 °F 44 °F 31 °F (2004)
Degree Days  
Heating Degree Days 7    
Month to date heating degree days 53  
Since 1 July heating degree days 520  
Cooling Degree Days 0    
Month to date cooling degree days 0  
Year to date cooling degree days 345  
Growing Degree Days 7 (Base 50)    
Moisture  
Dew Point 45 °F    
Average Humidity 63    
Maximum Humidity 86    
Minimum Humidity 39    
Precipitation  
Precipitation T in 0.07 in 0.79 in (1945)
Month to date precipitation T 0.26  
Year to date precipitation 14.83 12.38  
Since 1 July precipitation 1.99 2.75  
Sea Level Pressure  
Sea Level Pressure 30.00 in    
Wind  
Wind Speed 5 mph (SSE)    
Max Wind Speed 22 mph    
Max Gust Speed 31 mph    
Visibility 9 miles    
Events Rain    
T = Trace of Precipitation, MM = Missing Value Source: NWS Daily Summary

Daily Weather History Graph

Daily Weather History Graph

Search for Another Location

Airport:

Trip Planner

Search our weather history database for the weather conditions in past years. The results will help you decide how hot, cold, wet, or windy it might be!

Date:

Astronomy

Dec. 04, 2010 Rise Set
Actual Time 7:06 AM PST 4:50 PM PST
Civil Twilight 6:37 AM PST 5:19 PM PST
Nautical Twilight 6:05 AM PST 5:51 PM PST
Astronomical Twilight 5:33 AM PST 6:23 PM PST
Moon 6:08 AM PST (12/4) 3:58 PM PST (12/4)
Length of Visible Light 10h 41m
Length of Day
9h 43m
Waning Crescent, 1% of the Moon is Illuminated
Dec 4
Waning Crescent
Dec 5
New
Dec 13
First Quarter
Dec 21
Full
Dec 27
Last Quarter

Hourly Weather History & Observations

Time (PST) Temp. Dew Point Humidity Pressure Visibility Wind Dir Wind Speed Gust Speed Precip Events Conditions
12:56 AM 52.0 °F 46.9 °F 83% 29.94 in 5.0 mi Calm Calm - N/A   Haze
1:56 AM 52.0 °F 46.9 °F 83% 29.94 in 5.0 mi Calm Calm - N/A   Haze
2:56 AM 51.1 °F 46.9 °F 86% 29.94 in 5.0 mi Calm Calm - N/A   Overcast
3:56 AM 51.1 °F 46.9 °F 86% 29.94 in 5.0 mi Calm Calm - N/A   Overcast
4:56 AM 51.1 °F 46.9 °F 86% 29.96 in 5.0 mi Calm Calm - N/A   Overcast
5:56 AM 50.0 °F 46.9 °F 89% 29.98 in 5.0 mi Calm Calm - N/A   Overcast
6:56 AM 52.0 °F 46.0 °F 80% 29.99 in 7.0 mi Calm Calm - N/A   Overcast
7:56 AM 54.0 °F 44.1 °F 69% 29.98 in 9.0 mi ENE 8.1 mph - N/A   Mostly Cloudy
8:56 AM 60.1 °F 37.0 °F 42% 30.00 in 10.0 mi SE 16.1 mph 26.5 mph N/A   Mostly Cloudy
9:56 AM 62.1 °F 37.9 °F 41% 30.03 in 10.0 mi SSE 8.1 mph - N/A   Overcast
10:56 AM 60.1 °F 48.0 °F 64% 30.02 in 10.0 mi South 3.5 mph - 0.00 in Rain Light Rain
11:56 AM 64.0 °F 43.0 °F 46% 30.00 in 10.0 mi SSE 11.5 mph 18.4 mph 0.00 in   Scattered Clouds
12:56 PM 63.0 °F 43.0 °F 48% 29.98 in 10.0 mi SSE 9.2 mph - N/A   Overcast
1:56 PM 64.0 °F 43.0 °F 46% 29.97 in 10.0 mi South 3.5 mph - N/A   Overcast
2:56 PM 64.9 °F 39.9 °F 40% 29.98 in 10.0 mi South 8.1 mph 17.3 mph N/A   Mostly Cloudy
3:56 PM 62.1 °F 41.0 °F 46% 30.00 in 10.0 mi South 10.4 mph - N/A   Overcast
4:56 PM 60.1 °F 43.0 °F 53% 30.01 in 10.0 mi South 5.8 mph - N/A   Overcast
5:56 PM 59.0 °F 44.1 °F 58% 30.02 in 10.0 mi SSE 5.8 mph - N/A   Mostly Cloudy
6:56 PM 59.0 °F 45.0 °F 60% 30.03 in 10.0 mi South 6.9 mph - N/A   Overcast
7:56 PM 57.9 °F 46.0 °F 65% 30.04 in 10.0 mi SE 5.8 mph - N/A   Overcast
8:13 PM 57.2 °F 46.4 °F 67% 30.03 in 10.0 mi ESE 5.8 mph - N/A   Overcast
8:56 PM 57.0 °F 46.9 °F 69% 30.04 in 10.0 mi ESE 4.6 mph - N/A   Overcast
9:56 PM 57.9 °F 46.9 °F 67% 30.05 in 10.0 mi SE 3.5 mph - N/A   Overcast
10:06 PM 57.2 °F 46.4 °F 67% 30.04 in 10.0 mi SSE 3.5 mph - N/A   Overcast
10:56 PM 57.0 °F 48.0 °F 72% 30.05 in 10.0 mi South 4.6 mph - N/A   Overcast
11:56 PM 57.0 °F 48.0 °F 72% 30.06 in 10.0 mi South 3.5 mph - 0.00 in   Overcast